GW2652 Weather Reports


Display with metric or nautical units.
time (UTC)temp
F
wind
direction
speed
MPH
gust
MPH
rain 1hr
in
rain 24hr
in
rain mn
in
humidity
%
barometer
mb
20260503225316 54 164 1.0 2.0 0.00 0.00 0.00 47 1007.7
20260503224813 54 199 1.0 1.0 0.00 0.00 0.00 49 1007.7
20260503224310 55 184 0.0 0.0 0.00 0.00 0.00 49 1007.7
20260503223808 54 213 1.0 2.0 0.00 0.00 0.00 48 1007.6
20260503223305 55 114 1.0 3.0 0.00 0.00 0.00 48 1007.7
20260503222801 55 131 1.0 1.0 0.00 0.00 0.00 48 1007.7
20260503222300 54 49 2.0 2.0 0.00 0.00 0.00 48 1007.8
20260503221757 54 314 1.0 1.0 0.00 0.00 0.00 50 1007.8
20260503221255 53 94 2.0 2.0 0.00 0.00 0.00 49 1007.9
20260503220751 52 161 2.0 2.0 0.00 0.00 0.00 50 1008.2
20260503220248 51 220 2.0 3.0 0.00 0.00 0.00 52 1007.9
20260503215745 51 269 4.0 4.0 0.00 0.00 0.00 51 1008.2
20260503215242 52 161 2.0 4.0 0.00 0.00 0.00 50 1008.2
20260503214740 53 290 4.0 6.0 0.00 0.00 0.00 50 1007.7
20260503214237 53 263 1.0 2.0 0.00 0.00 0.00 48 1007.9
20260503213735 52 277 4.0 4.0 0.00 0.00 0.00 49 1008.0
20260503213232 51 230 4.0 8.0 0.00 0.00 0.00 50 1008.3
20260503212728 51 227 2.0 3.0 0.00 0.00 0.00 53 1007.8
20260503212226 51 329 8.0 11.0 0.00 0.00 0.00 50 1008.2
20260503211724 50 124 1.0 1.0 0.00 0.00 0.00 53 1007.9
20260503211220 51 290 8.0 13.0 0.00 0.00 0.00 49 1008.3
20260503210715 51 334 6.0 7.0 0.00 0.00 0.00 48 1008.0
20260503210213 52 231 5.0 7.0 0.00 0.00 0.00 48 1007.8
20260503205708 52 118 3.0 4.0 0.00 0.00 0.00 46 1007.9
20260503205205 53 196 2.0 3.0 0.00 0.00 0.00 46 1007.7
20260503204701 53 105 2.0 4.0 0.00 0.00 0.00 45 1007.5
20260503204159 53 183 2.0 2.0 0.00 0.00 0.00 46 1007.5
20260503203655 53 140 4.0 6.0 0.00 0.00 0.00 47 1007.7
20260503203154 53 155 3.0 4.0 0.00 0.00 0.00 45 1007.8
20260503202650 52 64 2.0 3.0 0.00 0.00 0.00 48 1007.7
20260503202148 52 299 4.0 6.0 0.00 0.00 0.00 46 1007.7
20260503201646 53 274 3.0 3.0 0.00 0.00 0.00 45 1007.7
20260503201143 52 149 3.0 4.0 0.00 0.00 0.00 45 1007.8
20260503200639 52 346 9.0 16.0 0.00 0.00 0.00 45 1008.2
20260503200136 52 158 4.0 4.0 0.00 0.00 0.00 45 1007.8
20260503195633 53 251 3.0 6.0 0.00 0.00 0.00 44 1007.8
20260503195130 53 49 4.0 7.0 0.00 0.00 0.00 43 1008.0
20260503194627 53 51 4.0 6.0 0.00 0.00 0.00 44 1008.0
20260503194122 55 222 4.0 6.0 0.00 0.00 0.00 43 1008.0
20260503193620 55 59 5.0 8.0 0.00 0.00 0.00 40 1008.3
20260503193114 54 222 2.0 4.0 0.00 0.00 0.00 42 1008.3
20260503192610 53 257 5.0 7.0 0.00 0.00 0.00 41 1008.2
20260503192106 53 271 4.0 4.0 0.00 0.00 0.00 43 1008.0
20260503191604 54 85 2.0 2.0 0.00 0.00 0.00 42 1008.3
20260503191100 53 319 3.0 6.0 0.00 0.00 0.00 43 1008.3
20260503190557 53 276 6.0 7.0 0.00 0.00 0.00 40 1008.5
20260503190054 54 213 4.0 4.0 0.00 0.00 0.00 41 1008.5
20260503185551 53 192 4.0 6.0 0.00 0.00 0.00 40 1008.6
20260503185050 53 273 2.0 2.0 0.00 0.00 0.00 40 1008.5
20260503184546 53 192 2.0 4.0 0.00 0.00 0.00 42 1008.9
20260503184043 53 314 9.0 14.0 0.00 0.00 0.00 39 1008.8
20260503183540 54 314 4.0 4.0 0.00 0.00 0.00 41 1008.7
20260503183037 53 156 4.0 9.0 0.00 0.00 0.00 41 1009.0
20260503182536 53 299 3.0 4.0 0.00 0.00 0.00 42 1009.0
20260503182033 54 330 3.0 4.0 0.00 0.00 0.00 42 1009.0
20260503181530 53 44 4.0 7.0 0.00 0.00 0.00 40 1009.0
20260503181026 53 319 9.0 10.0 0.00 0.00 0.00 40 1009.0
20260503180524 51 306 8.0 14.0 0.00 0.00 0.00 41 1009.2
20260503180021 52 303 6.0 8.0 0.00 0.00 0.00 41 1009.2
20260503175518 52 182 4.0 7.0 0.00 0.00 0.00 40 1009.3
20260503175015 52 225 5.0 6.0 0.00 0.00 0.00 41 1009.3
20260503174513 51 69 7.0 15.0 0.00 0.00 0.00 42 1009.5
20260503174008 51 215 5.0 8.0 0.00 0.00 0.00 42 1009.2
20260503173503 50 248 4.0 7.0 0.00 0.00 0.00 44 1009.4
20260503173000 50 82 2.0 3.0 0.00 0.00 0.00 46 1009.4
20260503172458 50 289 5.0 9.0 0.00 0.00 0.00 43 1009.5
20260503171955 51 293 3.0 4.0 0.00 0.00 0.00 42 1009.2
20260503171451 50 186 1.0 2.0 0.00 0.00 0.00 43 1009.5
20260503170949 50 254 5.0 7.0 0.00 0.00 0.00 42 1009.5
20260503170445 50 91 5.0 8.0 0.00 0.00 0.00 43 1009.6
20260503150837 44 321 6.0 8.0 0.00 0.00 0.00 52 1010.4
20260503150333 45 186 1.0 1.0 0.00 0.00 0.00 51 1010.2
20260503140257 43 249 3.0 4.0 0.00 0.00 0.00 54 1010.2
20260503131227 44 141 5.0 7.0 0.00 0.00 0.00 62 1010.4
20260503130725 42 218 3.0 3.0 0.00 0.00 0.00 66 1010.4
20260503130222 44 199 0.0 1.0 0.00 0.00 0.00 63 1010.4
20260503120148 39 136 2.0 4.0 0.00 0.00 0.00 78 1010.4
20260503110615 36 132 0.0 0.0 0.00 0.00 0.00 84 1010.0
20260503110112 36 205 1.0 2.0 0.00 0.00 0.00 84 1009.9
20260503090502 35 156 0.0 0.0 0.00 0.00 0.00 95 1009.3
20260503081428 35 155 0.0 0.0 0.00 0.00 0.00 94 1009.3
20260503080920 35 155 0.0 0.0 0.00 0.00 0.00 93 1009.5
20260503080416 35 155 0.0 0.0 0.00 0.00 0.00 93 1009.6
20260503072852 34 155 0.0 0.0 0.00 0.00 0.00 94 1009.5
20260503072349 34 155 0.0 0.0 0.00 0.00 0.00 94 1009.5
20260503071846 34 176 0.0 0.0 0.00 0.00 0.00 94 1009.6
20260503071343 34 178 0.0 0.0 0.00 0.00 0.00 95 1009.6
20260503070839 34 178 0.0 0.0 0.00 0.00 0.00 95 1009.6
20260503070338 34 178 0.0 0.0 0.00 0.00 0.00 94 1009.6
20260503060256 33 154 0.0 0.0 0.00 0.00 0.00 93 1010.1
20260503054743 33 154 0.0 0.0 0.00 0.00 0.00 93 1010.1
20260503054240 33 155 0.0 0.0 0.00 0.00 0.00 93 1010.0
20260503053738 33 136 0.0 1.0 0.00 0.00 0.00 92 1010.2
20260503053237 33 134 0.0 1.0 0.00 0.00 0.00 93 1010.1
20260503052732 33 178 0.0 0.0 0.00 0.00 0.00 92 1010.2
20260503052229 33 176 0.0 0.0 0.00 0.00 0.00 92 1010.3
20260503051724 33 189 0.0 0.0 0.00 0.00 0.00 92 1010.5
20260503051222 32 148 0.0 0.0 0.00 0.00 0.00 92 1010.4
20260503050719 32 148 0.0 0.0 0.00 0.00 0.00 93 1010.6
20260503050215 32 157 0.0 0.0 0.00 0.00 0.00 93 1010.6
20260503045713 32 198 0.0 0.0 0.00 0.00 0.00 93 1010.5
20260503045210 32 179 0.0 1.0 0.00 0.00 0.00 92 1010.6
20260503044707 32 179 0.0 0.0 0.00 0.00 0.00 92 1010.9
20260503044204 32 133 0.0 0.0 0.00 0.00 0.00 91 1010.7
20260503043700 32 132 0.0 0.0 0.00 0.00 0.00 92 1010.9
20260503043158 32 133 0.0 0.0 0.00 0.00 0.00 91 1010.7
20260503042654 33 133 0.0 0.0 0.00 0.00 0.00 91 1010.9
20260503042150 33 132 0.0 0.0 0.00 0.00 0.00 90 1010.9
20260503041647 33 132 0.0 0.0 0.00 0.00 0.00 91 1010.7
20260503041144 33 134 0.0 0.0 0.00 0.00 0.00 91 1011.0
20260503040642 33 183 0.0 0.0 0.00 0.00 0.00 92 1010.9
20260503040139 33 183 0.0 0.0 0.00 0.00 0.00 93 1010.9
20260503035635 33 183 0.0 0.0 0.00 0.01 0.01 92 1011.0
20260503035133 33 183 0.0 0.0 0.00 0.01 0.01 92 1010.7
20260503034631 33 183 0.0 0.0 0.00 0.01 0.01 91 1011.1
20260503034128 33 183 0.0 0.0 0.00 0.01 0.01 90 1011.1
20260503033625 33 183 0.0 0.0 0.00 0.01 0.01 91 1011.0
20260503033122 33 183 0.0 0.0 0.00 0.01 0.01 91 1011.1
20260503032621 33 183 0.0 0.0 0.00 0.01 0.01 91 1011.2
20260503032119 33 183 0.0 0.0 0.00 0.01 0.01 91 1011.2
20260503031616 33 183 0.0 0.0 0.00 0.01 0.01 90 1011.2
20260503031113 33 183 0.0 0.0 0.00 0.01 0.01 90 1011.2
20260503030609 34 183 0.0 0.0 0.00 0.01 0.01 88 1011.2
20260503030106 34 183 0.0 0.0 0.00 0.01 0.01 88 1011.3
20260503025603 35 183 0.0 0.0 0.00 0.01 0.01 87 1011.0
20260503025101 35 183 0.0 0.0 0.00 0.01 0.01 87 1011.2
20260503024556 35 183 0.0 0.0 0.00 0.01 0.01 87 1011.1
20260503024054 35 183 0.0 0.0 0.00 0.01 0.01 86 1011.2
20260503023550 36 183 0.0 0.0 0.00 0.01 0.01 86 1011.4
20260503023048 35 183 0.0 0.0 0.00 0.01 0.01 84 1011.1
20260503022544 35 183 0.0 0.0 0.00 0.01 0.01 84 1011.0
20260503022039 36 183 0.0 0.0 0.00 0.01 0.01 83 1011.1
20260503021536 37 183 0.0 0.0 0.00 0.01 0.01 82 1010.9
20260503021033 37 183 0.0 0.0 0.00 0.01 0.01 83 1011.3
20260503020530 38 183 0.0 0.0 0.00 0.01 0.01 81 1011.2
20260503020027 38 183 0.0 0.0 0.00 0.01 0.01 79 1011.3
20260503015523 39 183 0.0 0.0 0.00 0.01 0.01 79 1011.0
20260503015021 39 183 0.0 0.0 0.00 0.01 0.01 79 1011.2
20260503014517 39 183 0.0 0.0 0.00 0.01 0.01 72 1011.0
20260503014015 40 183 0.0 0.0 0.00 0.01 0.01 72 1011.0
20260503013512 40 197 1.0 1.0 0.00 0.01 0.01 69 1011.0
20260503013009 41 167 0.0 0.0 0.00 0.01 0.01 69 1011.1
20260503012507 41 159 0.0 0.0 0.00 0.01 0.01 67 1011.0
20260503012003 41 117 1.0 1.0 0.00 0.01 0.01 67 1010.9
20260503011500 41 240 2.0 2.0 0.00 0.01 0.01 68 1011.0
20260503010957 41 173 0.0 1.0 0.00 0.01 0.01 66 1010.9
20260503010453 41 169 0.0 0.0 0.00 0.01 0.01 66 1010.5
20260503005950 41 151 0.0 0.0 0.00 0.01 0.01 67 1010.9
20260503005447 41 220 1.0 2.0 0.00 0.01 0.01 65 1010.4
20260503004944 42 94 0.0 0.0 0.00 0.01 0.01 64 1010.9
20260503004441 42 92 1.0 1.0 0.00 0.01 0.01 64 1010.4
20260503003939 42 336 0.0 0.0 0.00 0.01 0.01 66 1010.4
20260503003435 42 62 2.0 3.0 0.00 0.01 0.01 65 1010.5
20260503002932 42 63 1.0 1.0 0.00 0.01 0.01 64 1010.5
20260503002429 42 138 0.0 1.0 0.00 0.01 0.01 63 1010.4
20260503001926 42 137 0.0 0.0 0.00 0.01 0.01 63 1010.5
20260503001422 42 134 0.0 0.0 0.00 0.01 0.01 62 1010.2
20260503000920 42 224 0.0 0.0 0.00 0.01 0.01 65 1010.4
20260503000417 43 133 0.0 0.0 0.00 0.01 0.01 62 1010.5
20260502235914 43 133 2.0 2.0 0.00 0.01 0.01 61 1010.2
20260502235411 43 134 2.0 3.0 0.00 0.01 0.01 60 1010.3
20260502234908 43 173 1.0 1.0 0.00 0.01 0.01 60 1010.4
20260502234405 43 295 0.0 0.0 0.00 0.01 0.01 62 1010.0
20260502233902 44 295 1.0 1.0 0.00 0.01 0.01 59 1010.3
20260502233357 44 142 0.0 0.0 0.00 0.01 0.01 59 1010.3
20260502232855 44 285 2.0 3.0 0.00 0.01 0.01 58 1010.1
20260502232351 44 119 1.0 1.0 0.00 0.01 0.01 61 1010.1
20260502231848 44 119 0.0 1.0 0.00 0.01 0.01 60 1010.1
20260502231346 44 135 1.0 2.0 0.00 0.01 0.01 59 1010.3
20260502230844 44 166 0.0 0.0 0.00 0.01 0.01 59 1010.1
20260502230341 44 279 2.0 3.0 0.00 0.01 0.01 60 1010.0
20260502225837 44 162 0.0 0.0 0.00 0.01 0.01 61 1010.2